Home > Weather > Traun > Past weeks

Flag for Austria Weather for the Past 2 Weeks in Traun, Upper Austria, Austria

Now
45 °F

Sprinkles. Partly cloudy.


Feels Like: 39 °F
Forecast: 38 / 45 °F
Wind: 10 mph from Southwest

Location: Linz / Hoersching-Flughafen

Current Time: Feb 9, 2016 at 6:58:19 AM

Latest Report: Feb 9, 2016 at 5:50 AM


Visibility: N/A

Pressure: 29.83 "Hg

Humidity: 81%

Dew point: 39 °F

Location of TraunLocation

Historic Weather in Traun — Graph

°F

Traun Temperature Yesterday

Maximum temperature yesterday: 54 °F (at 1:50 PM)
Minimum temperature yesterday: 39 °F (at 7:20 AM)
Average temperature yesterday: 46 °F

High & Low Weather Summary for the Past Weeks

 TemperatureHumidityPressure
High55 °F (Jan 28, 2:20 PM)100% (Jan 25, 5:20 AM)30.45 "Hg (Jan 25, 5:20 AM)
Low27 °F (Jan 27, 3:20 AM)47% (Feb 8, 1:50 PM)29.65 "Hg (Feb 8, 4:50 PM)
Average40 °F88%30.15 "Hg
* Reported Jan 25 5:20 AM — Feb 9 5:20 AM, Traun, Weather by CustomWeather, © 2016

Note: Actual official high and low records may vary slightly from our data, if they occured in-between our weather recording intervals... More about our weather records

Advertising

Traun Weather History for the Previous 24 Hours

 ConditionsComfort  
Time TempWeatherWind HumidityBarometerVisibility
5:20 AM
Tue, Feb 9
41 °FSprinkles. Partly cloudy.3 mph93%29.83 "HgN/A
4:50 AM41 °FPartly cloudy.5 mph93%29.83 "HgN/A
4:20 AM43 °FPassing clouds.8 mph87%29.83 "HgN/A
3:50 AM43 °FPassing clouds.10 mph93%29.83 "HgN/A
3:20 AM43 °FPassing clouds.6 mph93%29.83 "HgN/A
2:50 AM43 °FSprinkles. Partly cloudy.7 mph93%29.83 "HgN/A
2:20 AM43 °FSprinkles. Passing clouds.7 mph93%29.83 "HgN/A
1:50 AM41 °FRain. Partly cloudy.6 mph100%29.83 "HgN/A
1:20 AM41 °FPassing clouds.3 mph93%29.80 "HgN/A
12:50 AM41 °FPassing clouds.3 mph93%29.80 "HgN/A
12:20 AM43 °FPartly cloudy.6 mph87%29.83 "HgN/A
11:50 PM
Mon, Feb 8
45 °FSprinkles. Passing clouds.6 mph87%29.83 "HgN/A
11:20 PM45 °FSprinkles. Partly cloudy.13 mph87%29.80 "HgN/A
10:20 PM45 °FPartly cloudy.6 mph81%29.77 "HgN/A
9:50 PM45 °FPartly cloudy.6 mph81%29.74 "HgN/A
9:20 PM45 °FPartly cloudy.7 mph76%29.74 "HgN/A
8:50 PM45 °FSprinkles. Partly cloudy.8 mph76%29.74 "HgN/A
8:20 PM45 °FPartly cloudy.1 mph76%29.68 "HgN/A
7:50 PM43 °FPartly cloudy.9 mph81%29.71 "HgN/A
7:20 PM46 °FPassing clouds.3 mph66%29.65 "HgN/A
6:50 PM46 °FPartly cloudy.6 mph71%29.65 "HgN/A
6:20 PM46 °FPassing clouds.7 mph71%29.65 "HgN/A
5:50 PM46 °FClear.7 mph71%29.65 "Hg10 mi
5:20 PM48 °FClear.8 mph66%29.65 "Hg10 mi
4:50 PM50 °FSunny.8 mph62%29.65 "Hg10 mi
4:20 PM52 °FSunny.8 mph58%29.68 "Hg10 mi
3:50 PM52 °FSunny.9 mph58%29.68 "Hg10 mi
3:20 PM54 °FSunny.7 mph54%29.68 "Hg10 mi
2:50 PM54 °FSunny.8 mph54%29.71 "Hg10 mi
2:20 PM54 °FSunny.9 mph51%29.71 "Hg10 mi
1:50 PM54 °FPassing clouds.9 mph47%29.71 "HgN/A
1:20 PM52 °FPassing clouds.13 mph58%29.74 "HgN/A
12:50 PM52 °FPassing clouds.10 mph54%29.77 "HgN/A
12:20 PM52 °FSunny.9 mph58%29.77 "Hg10 mi
11:50 AM50 °FPassing clouds.7 mph58%29.80 "HgN/A
11:20 AM48 °FPassing clouds.8 mph62%29.83 "HgN/A
10:50 AM48 °FPassing clouds.9 mph62%29.83 "HgN/A
10:20 AM46 °FScattered clouds.9 mph66%29.86 "HgN/A
9:50 AM45 °FScattered clouds.10 mph71%29.86 "HgN/A
9:20 AM45 °FScattered clouds.9 mph71%29.86 "HgN/A
8:50 AM41 °FScattered clouds.8 mph81%29.89 "HgN/A
8:20 AM41 °FPartly sunny.8 mph81%29.89 "HgN/A
7:50 AM39 °FPartly sunny.7 mph87%29.89 "HgN/A
7:20 AM39 °FPassing clouds.3 mph87%29.89 "HgN/A
6:50 AM41 °FPassing clouds.2 mph81%29.89 "HgN/A
6:20 AM41 °FPassing clouds.2 mph76%29.89 "HgN/A
Weather by CustomWeather, © 2016

See weather overviewHow to use our weather pages